{"data":{"norad_id":54801,"epoch":"2026-09-20T08:05:11.922720Z","epoch_age_seconds":106741,"freshness":"FRESH","line1":"1 54801U 22175AV  26263.33694355  .00000775  00000+0  36745-4 0  9999","line2":"2 54801  53.1578 235.6726 0001284  86.8498 273.2651 15.31703392209504","mean_motion":15.31703392,"eccentricity":0.0001284,"inclination_deg":53.1578,"raan_deg":235.6726,"arg_perigee_deg":86.8498,"mean_anomaly_deg":273.2651,"bstar":3.6745e-5,"rev_number":20950,"period_min":94.012979766255,"perigee_km":469.85048936092,"apogee_km":471.6092783767,"semimajor_km":6848.8668838688,"source":"CELESTRAK","updated_at":"2026-09-21T09:00:33.129343Z"}}